User: anonymous   Login
Location: Haieshausen
(51.8387°N, 9.9720°E)
Time: 14:05:28
(UTC+00:00)
Language:

UNK - Orbit

View from above orbital plane
View from above orbital plane
View from above satellite
View from above satellite

Ground track
Ground track

The orbit data is extracted from the following two-line orbital elements,

1 27940U 03042B   20274.93460190 +.00000066 +00000-0 +21189-4 0  9995
2 27940 098.1269 044.4502 0015343 079.3835 280.9096 14.65184384908879
Epoch (UTC): 30 September 2020 22:25:49
Eccentricity: 0.0015343
inclination: 98.1269°
perigee height: 665 km
apogee height: 687 km
right ascension of ascending node: 44.4502°
argument of perigee: 79.3835°
revolutions per day: 14.65184384
mean anomaly at epoch: 280.9096°
orbit number at epoch: 90887

The dashed part of the orbit path shows where the satellite is in the earth's shadow,  

DLR